When you browse on this site, cookies collect data to enhance your experience and personalize the content and advertising you see.
Visit our Privacy Policy to learn more. By continuing to use the site, you agree to this use of cookies and data.
  • In Romania
  • List of Countries
  • For 7 days
  • Water Temperature
  • Weather Map
  • Weather Widgets
  • user-avatar
    Login

    Hourly Weather Mundahan

    Today, 3 April, Friday

    Time Temperature Precipitation Wind Pressure Humidity
    00:00 +30°C° 0.4 mm 1 mps 741 mmHg 67%
    01:00 +28°C° 0 mm 0 mps 741 mmHg 70%
    02:00 +29°C° 0 mm 1 mps 741 mmHg 72%
    03:00 +29°C° 0 mm 1 mps 741 mmHg 74%
    04:00 +29°C° 0 mm 2 mps 741 mmHg 77%
    05:00 +29°C° 0.2 mm 2 mps 742 mmHg 77%
    06:00 +29°C° 0.2 mm 2 mps 742 mmHg 78%
    07:00 +29°C° 0 mm 2 mps 743 mmHg 77%
    08:00 +31°C° 0 mm 3 mps 743 mmHg 68%
    09:00 +34°C° 0 mm 3 mps 743 mmHg 60%
    10:00 +36°C° 0 mm 3 mps 744 mmHg 51%
    11:00 +37°C° 0.1 mm 3 mps 743 mmHg 46%
    12:00 +38°C° 0.1 mm 3 mps 742 mmHg 40%
    13:00 +40°C° 0.1 mm 2 mps 741 mmHg 35%
    14:00 +39°C° 0 mm 2 mps 741 mmHg 36%
    15:00 +39°C° 0 mm 2 mps 740 mmHg 37%
    16:00 +38°C° 0 mm 2 mps 739 mmHg 37%
    17:00 +37°C° 0.5 mm 2 mps 740 mmHg 43%
    18:00 +35°C° 0.5 mm 2 mps 740 mmHg 48%
    19:00 +33°C° 0.5 mm 1 mps 740 mmHg 53%
    20:00 +31°C° 0.6 mm 2 mps 741 mmHg 60%
    21:00 +30°C° 0.6 mm 2 mps 742 mmHg 66%
    22:00 +29°C° 0.6 mm 2 mps 742 mmHg 73%
    23:00 +29°C° 0 mm 2 mps 742 mmHg 73%

    Tomorrow, 4 April, Saturday

    Time Temperature Precipitation Wind Pressure Humidity
    00:00 +29°C° 0 mm 2 mps 741 mmHg 74%
    01:00 +29°C° 0 mm 2 mps 741 mmHg 74%
    02:00 +28°C° 0 mm 1 mps 741 mmHg 76%
    03:00 +28°C° 0 mm 1 mps 741 mmHg 78%
    04:00 +28°C° 0 mm 1 mps 741 mmHg 80%
    05:00 +28°C° 0 mm 1 mps 742 mmHg 79%
    06:00 +28°C° 0 mm 2 mps 742 mmHg 77%
    07:00 +28°C° 0 mm 2 mps 743 mmHg 76%
    08:00 +31°C° 0 mm 3 mps 743 mmHg 64%
    09:00 +34°C° 0 mm 3 mps 743 mmHg 52%
    10:00 +37°C° 0 mm 3 mps 744 mmHg 40%
    11:00 +38°C° 0 mm 3 mps 743 mmHg 36%
    12:00 +39°C° 0 mm 2 mps 742 mmHg 33%
    13:00 +41°C° 0 mm 1 mps 742 mmHg 30%
    14:00 +40°C° 0 mm 1 mps 741 mmHg 31%
    15:00 +39°C° 0 mm 2 mps 741 mmHg 33%
    16:00 +38°C° 0 mm 2 mps 740 mmHg 35%
    17:00 +37°C° 0 mm 3 mps 740 mmHg 42%
    18:00 +35°C° 0 mm 4 mps 740 mmHg 48%
    19:00 +34°C° 0 mm 5 mps 741 mmHg 54%
    20:00 +33°C° 0 mm 5 mps 741 mmHg 59%
    21:00 +32°C° 0 mm 5 mps 742 mmHg 63%
    22:00 +30°C° 0 mm 5 mps 742 mmHg 68%
    23:00 +29°C° 0 mm 4 mps 742 mmHg 70%

    Day after tomorrow, 5 April, Sunday

    Time Temperature Precipitation Wind Pressure Humidity
    00:00 +28°C° 0 mm 4 mps 742 mmHg 73%
    01:00 +28°C° 0 mm 4 mps 741 mmHg 75%
    02:00 +27°C° 0 mm 3 mps 741 mmHg 77%
    03:00 +27°C° 0 mm 3 mps 741 mmHg 78%
    04:00 +26°C° 0 mm 3 mps 741 mmHg 80%
    05:00 +27°C° 0 mm 3 mps 742 mmHg 79%
    06:00 +27°C° 0 mm 3 mps 742 mmHg 77%
    07:00 +27°C° 0 mm 3 mps 743 mmHg 76%
    08:00 +30°C° 0 mm 4 mps 743 mmHg 64%
    09:00 +33°C° 0 mm 4 mps 743 mmHg 52%
    10:00 +36°C° 0 mm 4 mps 744 mmHg 39%
    11:00 +37°C° 0 mm 4 mps 743 mmHg 36%
    12:00 +38°C° 0 mm 3 mps 742 mmHg 33%
    13:00 +39°C° 0 mm 3 mps 742 mmHg 30%
    14:00 +39°C° 0 mm 2 mps 741 mmHg 31%
    15:00 +39°C° 0 mm 2 mps 740 mmHg 31%
    16:00 +39°C° 0 mm 1 mps 739 mmHg 31%
    17:00 +37°C° 0 mm 1 mps 740 mmHg 33%
    18:00 +36°C° 0 mm 1 mps 740 mmHg 35%
    19:00 +35°C° 0 mm 1 mps 740 mmHg 38%
    20:00 +35°C° 0 mm 2 mps 741 mmHg 43%
    21:00 +34°C° 0 mm 3 mps 741 mmHg 49%
    22:00 +33°C° 0 mm 4 mps 742 mmHg 55%
    23:00 +32°C° 0 mm 4 mps 742 mmHg 59%

    6 April, Monday

    Time Temperature Precipitation Wind Pressure Humidity
    00:00 +30°C° 0 mm 3 mps 741 mmHg 63%
    01:00 +29°C° 0 mm 3 mps 741 mmHg 66%
    02:00 +28°C° 0.5 mm 3 mps 741 mmHg 70%
    03:00 +27°C° 0.5 mm 2 mps 741 mmHg 74%
    04:00 +27°C° 0.5 mm 2 mps 741 mmHg 78%
    05:00 +27°C° 0.1 mm 2 mps 741 mmHg 77%
    06:00 +27°C° 0.1 mm 3 mps 742 mmHg 77%
    07:00 +27°C° 0.1 mm 3 mps 742 mmHg 77%
    08:00 +29°C° 0 mm 3 mps 743 mmHg 66%
    09:00 +33°C° 0 mm 3 mps 743 mmHg 56%
    10:00 +35°C° 0 mm 3 mps 743 mmHg 45%
    11:00 +37°C° 0 mm 3 mps 742 mmHg 40%
    12:00 +38°C° 0 mm 3 mps 741 mmHg 36%
    13:00 +40°C° 0 mm 3 mps 741 mmHg 32%
    14:00 +39°C° 0 mm 2 mps 740 mmHg 32%
    15:00 +39°C° 0 mm 2 mps 739 mmHg 32%
    16:00 +39°C° 0 mm 2 mps 738 mmHg 32%
    17:00 +37°C° 0.1 mm 2 mps 739 mmHg 37%
    18:00 +36°C° 0.1 mm 2 mps 739 mmHg 41%
    19:00 +34°C° 0.1 mm 2 mps 739 mmHg 46%
    20:00 +32°C° 0.5 mm 2 mps 740 mmHg 51%
    21:00 +31°C° 0.5 mm 3 mps 741 mmHg 57%
    22:00 +30°C° 0.5 mm 3 mps 741 mmHg 62%
    23:00 +29°C° 0.4 mm 3 mps 741 mmHg 67%

    7 April, Tuesday

    Time Temperature Precipitation Wind Pressure Humidity
    00:00 +28°C° 0.4 mm 2 mps 740 mmHg 72%
    01:00 +27°C° 0.4 mm 1 mps 740 mmHg 76%
    02:00 +27°C° 0 mm 1 mps 740 mmHg 77%
    03:00 +27°C° 0 mm 1 mps 740 mmHg 78%
    04:00 +27°C° 0 mm 1 mps 740 mmHg 79%
    05:00 +27°C° 0.1 mm 1 mps 740 mmHg 78%
    06:00 +28°C° 0.1 mm 1 mps 741 mmHg 77%
    07:00 +28°C° 0.1 mm 1 mps 742 mmHg 76%
    08:00 +30°C° 0 mm 2 mps 742 mmHg 68%
    09:00 +32°C° 0 mm 2 mps 742 mmHg 60%
    10:00 +35°C° 0 mm 3 mps 742 mmHg 52%
    11:00 +36°C° 0 mm 3 mps 742 mmHg 46%
    12:00 +38°C° 0 mm 3 mps 741 mmHg 40%
    13:00 +39°C° 0 mm 3 mps 740 mmHg 35%
    14:00 +39°C° 0 mm 3 mps 739 mmHg 33%
    15:00 +39°C° 0 mm 2 mps 739 mmHg 32%
    16:00 +40°C° 0 mm 2 mps 738 mmHg 31%
    17:00 +38°C° 0 mm 2 mps 738 mmHg 35%
    18:00 +37°C° 0 mm 2 mps 738 mmHg 38%
    19:00 +36°C° 0 mm 2 mps 739 mmHg 42%
    20:00 +34°C° 0.4 mm 2 mps 739 mmHg 47%
    21:00 +32°C° 0.4 mm 2 mps 740 mmHg 52%
    22:00 +31°C° 0.4 mm 2 mps 740 mmHg 56%
    23:00 +30°C° 0.4 mm 1 mps 740 mmHg 61%

    8 April, Wednesday

    Time Temperature Precipitation Wind Pressure Humidity
    00:00 +30°C° 0.4 mm 1 mps 740 mmHg 65%
    01:00 +29°C° 0.4 mm 1 mps 740 mmHg 70%
    02:00 +29°C° 0 mm 1 mps 739 mmHg 70%
    03:00 +29°C° 0 mm 1 mps 739 mmHg 70%
    04:00 +29°C° 0 mm 1 mps 739 mmHg 69%
    05:00 +29°C° 0.2 mm 1 mps 740 mmHg 70%
    06:00 +29°C° 0.2 mm 1 mps 741 mmHg 71%
    07:00 +29°C° 0.2 mm 1 mps 741 mmHg 71%
    08:00 +31°C° 0 mm 2 mps 742 mmHg 64%
    09:00 +34°C° 0 mm 3 mps 742 mmHg 57%
    10:00 +35°C° 0 mm 4 mps 743 mmHg 49%
    11:00 +37°C° 0 mm 4 mps 742 mmHg 44%
    12:00 +38°C° 0 mm 3 mps 741 mmHg 40%
    13:00 +39°C° 0 mm 3 mps 740 mmHg 35%
    14:00 +39°C° 0 mm 3 mps 740 mmHg 35%
    15:00 +39°C° 0 mm 3 mps 739 mmHg 34%
    16:00 +39°C° 0 mm 3 mps 738 mmHg 34%
    17:00 +37°C° 0.3 mm 3 mps 738 mmHg 41%
    18:00 +35°C° 0.3 mm 3 mps 739 mmHg 47%
    19:00 +33°C° 0.3 mm 3 mps 739 mmHg 54%
    20:00 +31°C° 0.5 mm 3 mps 740 mmHg 61%
    21:00 +29°C° 0.5 mm 3 mps 740 mmHg 67%
    22:00 +28°C° 0.5 mm 3 mps 741 mmHg 74%
    23:00 +28°C° 0.1 mm 3 mps 741 mmHg 75%
    Show more